[Iaude] MPEC S148: 2023 RR29 [a=1.78,e=0.44,i=7.8,H=25.1]

mpec at marsden.cfa.harvard.edu mpec at marsden.cfa.harvard.edu
Thu Sep 21 12:20:54 EDT 2023


M.P.E.C. 2023-S148                           Issued 2023 September 21, 16:19 UT

     The Minor Planet Electronic Circulars contain information on unusual
         minor planets, routine data on comets and natural satellites,
         and occasional editorial announcements.  They are published
    on behalf of Division F of the International Astronomical Union by the
          Minor Planet Center, Smithsonian Astrophysical Observatory,
                          Cambridge, MA 02138, U.S.A.
			  
             Prepared using the Tamkin Foundation Computer Network

                              MPC at CFA.HARVARD.EDU
            URL https://www.minorplanetcenter.net/    ISSN 1523-6714

                                   2023 RR29                                    


Observations:
     K23R29R* C2023 09 15.40977523 59 57.349-38 44 13.32         22.14wXES148F51
     K23R29R  C2023 09 15.41902723 59 58.400-38 44 09.75         22.09wXES148F51
     K23R29R  C2023 09 15.42826423 59 59.466-38 44 06.08         21.55wXES148F51
     K23R29R  C2023 09 15.47818400 00 05.177-38 43 43.13         21.54GVES148F51
     K23R29R  C2023 09 15.47882600 00 05.234-38 43 42.95         21.86GVES148F51
     K23R29R  C2023 09 15.47946800 00 05.320-38 43 42.38         21.75GVES148F51
     K23R29R  C2023 09 15.48011000 00 05.410-38 43 42.03         21.24GVES148F51
     K23R29R KC2023 09 15.54736400 00 17.00 -38 41 52.6          21.1 GVES148474
     K23R29R KC2023 09 15.55088400 00 17.44 -38 41 51.3          21.0 GVES148474
     K23R29R KC2023 09 15.56144100 00 18.78 -38 41 46.1          21.2 GVES148474
     K23R29R KC2023 09 15.56496000 00 19.17 -38 41 44.3          21.5 GVES148474
     K23R29R 3C2023 09 17.48586100 05 45.148-38 23 32.93         21.93GVES148T14
     K23R29R 3C2023 09 17.48683900 05 45.285-38 23 32.12         21.69GVES148T14
     K23R29R 3C2023 09 17.48782400 05 45.423-38 23 31.34         21.29GVES148T14

Observer details:
474 Mount John Observatory, Lake Tekapo.  Observers A. C. Gilmore, P. M.
    Kilmartin.  Measurer P. M. Kilmartin.  1.0-m f/7.7 reflector + CCD.
F51 Pan-STARRS 1, Haleakala.  Observers J. Bulger, T. Lowe, P. Minguez, A.
    Schultz, I. Smith, K. Chambers.  Measurers K. Chambers, T. de Boer, J.
    Bulger, J. Fairlamb, H. Gao, M. Huber, C.-C. Lin, T. Lowe, E. Magnier, P.
    Minguez, Y. Ramanjooloo, A. Schultz, I. Smith, R. Wainscoat, R. Weryk, S.
    Chastel.  1.8-m Ritchey-Chretien + CCD.
T14 Canada-France-Hawaii Telescope, Maunakea.  Observers R. Wainscoat, H.
    Januszewski, H. Flewelling.  Measurers R. Weryk, R. Wainscoat.  3.6-m
    Canada-France-Hawaii Telescope + CCD.

Orbital elements:
2023 RR29                                                Earth MOID = 0.0116 AU
Epoch 2023 Sept. 13.0 TT = JDT 2460200.5                Bell                    
M 342.02155              (2000.0)            P               Q                  
n   0.41436588     Peri.   21.74485     +0.79975684     -0.59925344             
a   1.7818866      Node    15.23499     +0.52873483     +0.67485742             
e   0.4437229      Incl.    7.83835     +0.28430351     +0.43065389             
P   2.38           H   25.15          G   0.15           U   9                  
Residuals in seconds of arc
230915 F51  0.0   0.0     230915 F51  0.0   0.1+    230915 474  0.3-  0.1-
230915 F51  0.1-  0.1+    230915 F51  0.2+  0.1+    230917 T14  0.0   0.0
230915 F51  0.0   0.0     230915 474  0.0   0.3+    230917 T14  0.0   0.0
230915 F51  0.0   0.0     230915 474  0.0   0.1-    230917 T14  0.0   0.0
230915 F51  0.2-  0.2-    230915 474  0.3+  0.1-

Ephemeris:
2023 RR29                a,e,i = 1.78, 0.44, 8                   q = 0.9912
Date    TT    R. A. (2000) Decl.     Delta      r    Elong.  Phase     V
2023 08 22    23 24 46.6 -36 39 50   0.2399  1.2238   149.2    25.1    23.6
...
2023 09 06    23 41 58.0 -38 46 49   0.1544  1.1400   146.4    29.3    22.7
...
2023 09 14    23 56 28.2 -38 51 44   0.1136  1.1003   144.2    32.4    22.0
...
2023 09 20    00 14 27.4 -37 40 13   0.08463 1.0735   143.2    34.1    21.4
2023 09 21    00 18 31.6 -37 16 41   0.07995 1.0693   143.2    34.3    21.2
2023 09 22    00 23 01.8 -36 48 13   0.07530 1.0652   143.2    34.4    21.1
...
2023 09 28    01 04 01.6 -30 57 03   0.04867 1.0427   145.4    33.1    20.1
...
2023 10 06    03 27 16.7 +05 09 09   0.02392 1.0183   139.5    39.6    18.7
...
2023 10 21    08 59 07.4 +49 58 53   0.06874 0.9929    85.7    90.3    22.5

M. P. C. Staff               (C) Copyright 2023 MPC           M.P.E.C. 2023-S148





More information about the Iaude mailing list